[[[{"header":{"parameterUnit":"kt","parameterCategory":2,"dx":1,"dy":1,"la1":30.253999710083008,"la2":30.299108505249023,"lo1":-89.0895004272461,"lo2":-89.04439544677734,"nx":28,"ny":28,"refTime":"2022-10-17T21:00:00:Z","depth":0,"parameterNumber":1,"parameterNumberName":"U-component_of_WINDS"},"data":[2.7436,2.7483,2.7492,2.7551,2.7569,2.7612,2.7631,2.7658,2.7681,2.7738,2.7773,2.779,2.7821,2.7868,2.7909,2.7917,2.7934,2.7945,2.7951,2.7891,2.7883,2.7876,2.7863,2.7948,2.7948,2.8012,2.8012,2.8013,2.7396,2.7413,2.7446,2.7484,2.7514,2.7509,2.7541,2.7566,2.7606,2.7636,2.767,2.7722,2.7766,2.7793,2.7838,2.7865,2.7866,2.7876,2.7874,2.7879,2.7815,2.7801,2.7875,2.7875,2.7875,2.7875,2.7875,2.7875,2.7325,2.7352,2.7378,2.7414,2.7436,2.7463,2.7492,2.7509,2.7544,2.7587,2.7593,2.764,2.7674,2.7732,2.7755,2.7795,2.7785,2.78,2.7804,2.7807,2.781,2.7717,2.7803,2.7803,2.7803,2.7803,2.7803,0,2.7274,2.7279,2.731,2.7344,2.7371,2.7399,2.7427,2.7446,2.7461,2.7489,2.7532,2.7559,2.7614,2.7658,2.7702,2.7722,2.7722,2.7723,2.7734,2.773,2.7722,2.7727,2.7622,2.772,2.7719,2.7719,2.7718,2.7718,2.7202,2.7233,2.7264,2.7285,2.7301,2.7336,2.7358,2.7369,2.7393,2.7431,2.7457,2.75,2.7534,2.7605,2.7628,2.767,2.767,2.7706,2.7676,2.7673,2.7671,2.7668,2.7673,2.7711,2.7712,2.7713,2.7713,0,2.7161,2.7172,2.7222,2.725,2.7258,2.7291,2.7317,2.7346,2.7359,2.7403,2.7414,2.7436,2.7479,2.7496,2.7549,2.7557,2.7619,2.7619,2.7608,2.7608,2.7643,2.7639,2.775,2.7766,2.7678,2.7679,2.768,0,2.7104,2.7144,2.7158,2.7186,2.7233,2.7239,2.7286,2.7301,2.7327,2.7361,2.736,2.7393,2.7408,2.7445,2.7457,2.751,2.752,2.7529,2.7532,2.7529,2.7527,2.7542,2.7538,2.7535,2.7535,2.7534,2.7534,0,2.7037,2.7091,2.7137,2.7151,2.7184,2.7207,2.7222,2.725,2.7272,2.7305,2.732,2.7359,2.738,2.7412,2.7425,2.7404,2.7491,2.7465,2.75,2.75,2.7517,2.7516,2.7611,2.7533,2.7533,2.7533,2.7533,0,2.6991,2.7019,2.7083,2.7111,2.7125,2.7156,2.7191,2.7221,2.7251,2.7258,2.7284,2.7285,2.7331,2.7305,2.737,2.7339,2.7362,2.7374,2.7377,2.7381,2.735,2.7401,2.749,2.75,2.7388,2.7387,2.7385,0,2.6913,2.6979,2.6983,2.7046,2.7078,2.7072,2.7108,2.7132,2.7145,2.7177,2.7192,2.7229,2.7212,2.7226,2.7257,2.7274,2.7315,2.727,2.7321,2.7323,2.7312,2.7395,2.7402,2.7469,2.737,2.7372,2.7373,0,2.6852,2.6887,2.6897,2.6913,2.6943,2.697,2.7011,2.7047,2.7068,2.7095,2.7131,2.7184,2.7173,2.7196,2.72,2.7231,2.7288,2.7215,2.7216,2.7228,2.7363,2.7371,2.7382,2.7285,2.7287,2.7289,2.7361,0,2.6781,2.6814,2.6842,2.6875,2.6898,2.6936,2.6946,2.697,2.697,2.698,2.7033,2.7057,2.7096,2.7112,2.7113,2.7177,2.7169,2.7157,2.7131,2.7185,2.7209,2.7219,2.7094,2.7093,2.7093,2.7092,0,0,2.6703,2.6749,2.675,2.6786,2.6805,2.6796,2.6837,2.6855,2.6892,2.6907,2.6892,2.6969,2.6989,2.7052,2.707,2.7086,2.7099,2.7078,2.7159,2.7166,2.7173,2.7199,2.7209,2.7091,2.7091,2.7091,2.7091,0,2.6677,2.6691,2.6729,2.6747,2.6772,2.678,2.6789,2.6814,2.6822,2.6872,2.6865,2.6899,2.6958,2.6981,2.7,2.7072,2.7066,2.7083,2.7117,2.7153,2.7161,2.7168,2.7195,2.7204,2.7089,2.7089,2.7089,0,2.6618,2.6634,2.6652,2.6692,2.6708,2.6742,2.6716,2.6752,2.6778,2.6768,2.6817,2.6832,2.6862,2.6919,2.6945,2.6933,2.7035,2.7004,2.7008,2.7011,2.7046,2.7056,2.7064,2.695,2.6949,2.6949,0,0,2.6595,2.6625,2.6643,2.6686,2.6698,2.6709,2.6727,2.6727,2.6751,2.6761,2.6779,2.6805,2.6841,2.6864,2.6897,2.6958,2.6966,2.6986,2.6993,2.6998,2.7004,2.704,2.705,2.6947,2.6947,2.6946,0,0,2.6585,2.6606,2.66,2.665,2.6672,2.6695,2.6723,2.6716,2.6746,2.6743,2.6748,2.6755,2.6808,2.6823,2.6794,2.6888,2.6862,2.6869,2.6876,2.6884,2.6891,2.6886,2.6772,0,0,0,0,0,2.6561,2.6603,2.6597,2.6607,2.6656,2.6698,2.6705,2.6708,2.6689,2.6711,2.6725,2.6716,2.6809,2.6783,2.6795,2.6826,2.692,2.6925,2.6929,2.6952,2.6961,2.6968,0,0,0,0,0,0,2.6565,2.6576,2.6596,2.662,2.6631,2.6697,2.6666,2.6668,2.6687,2.6684,2.6714,2.6717,2.6722,2.6778,2.6788,2.6818,2.6769,2.6922,2.6926,2.6929,2.6955,2.6962,2.6968,0,0,0,0,0,2.6568,2.6577,2.6655,2.662,2.6629,2.6643,2.6664,2.6666,2.6681,2.6701,2.6704,2.6681,2.6723,2.6732,2.6784,2.6813,2.6762,2.6765,2.6924,2.6928,2.693,2.6959,0,0,0,0,0,0,2.657,2.658,2.6657,2.666,2.6603,2.664,2.6645,2.6664,2.6696,2.67,2.6668,2.6665,2.6724,2.6731,2.6738,2.6811,2.6756,2.676,2.6762,2.6927,2.6929,2.6932,0,0,0,0,0,0,2.6575,2.6583,2.6658,2.6637,2.6637,2.6637,2.6641,2.6686,2.6697,2.6662,2.666,2.6666,2.6715,2.673,2.6736,2.6805,2.6752,2.6755,2.6758,2.6759,2.6929,2.6931,0,0,0,0,0,0,2.6578,2.6585,2.6636,2.6636,2.6637,2.6673,2.6676,2.6728,2.6675,2.666,2.6671,2.6669,2.6715,2.672,2.6734,2.6802,2.6804,2.6752,2.6754,2.6756,2.6757,0,0,0,0,0,0,0,2.6581,2.6535,2.6637,2.6636,2.6637,2.669,2.6691,2.6692,2.6675,2.6673,2.6671,2.6669,2.6731,2.6735,2.6739,2.6799,0,0,2.6751,2.6753,0,0,0,0,0,0,0,0,2.6533,2.6535,2.6637,2.6638,2.6639,2.669,2.6691,2.6691,2.6674,2.6673,2.6671,2.667,2.6732,2.6735,2.6738,0,0,0,0,0,0,0,0,0,0,0,0,0,0,0,2.6638,2.6638,0,2.669,2.6691,2.6691,2.6674,2.6673,2.6672,2.6671,2.6733,2.6735,2.6738,0,0,0,0,0,0,0,0,0,0,0,0,0,0,0,0,0,0,0,0,0,0,0,0,0,0,0,0,0,0,0,0,0,0,0,0,0,0,0,0,0,0,0,0,0,0,0,0,0,0,0,0,0,0,0,0,0,0,0,0,0,0,0,0,0,0,0,0,0]}],[{"header":{"parameterUnit":"kt","parameterCategory":2,"dx":1,"dy":1,"la1":30.253999710083008,"la2":30.299108505249023,"lo1":-89.0895004272461,"lo2":-89.04439544677734,"nx":28,"ny":28,"refTime":"2022-10-17T21:00:00:Z","depth":0,"parameterNumber":2,"parameterNumberName":"V-component_of_WINDS"},"data":[-4.3782,-4.3627,-4.3679,-4.3524,-4.3543,-4.3444,-4.3424,-4.3404,-4.3399,-4.3284,-4.3226,-4.3258,-4.3269,-4.3208,-4.3144,-4.3158,-4.3125,-4.3036,-4.3066,-4.3429,-4.3482,-4.3532,-4.3573,-4.303,-4.3029,-4.2682,-4.2679,-4.2676,-4.4048,-4.4067,-4.4,-4.3969,-4.3912,-4.4031,-4.4014,-4.3956,-4.3863,-4.3856,-4.3802,-4.3702,-4.3628,-4.367,-4.3605,-4.3529,-4.3577,-4.3508,-4.351,-4.3509,-4.39,-4.3943,-4.347,-4.347,-4.3471,-4.3471,-4.3471,-4.3471,-4.4545,-4.445,-4.4462,-4.439,-4.4388,-4.4365,-4.4282,-4.4325,-4.4257,-4.4199,-4.427,-4.4163,-4.4162,-4.4106,-4.4098,-4.4013,-4.4097,-4.4034,-4.4017,-4.3997,-4.397,-4.4459,-4.4005,-4.4006,-4.4008,-4.4009,-4.401,0,-4.4922,-4.4972,-4.4911,-4.4865,-4.4815,-4.4783,-4.4761,-4.471,-4.4826,-4.4764,-4.4678,-4.4636,-4.455,-4.4471,-4.442,-4.4424,-4.4531,-4.4549,-4.4504,-4.4465,-4.4438,-4.4446,-4.5077,-4.4559,-4.4564,-4.4567,-4.457,-4.4572,-4.5422,-4.5306,-4.5342,-4.5292,-4.5294,-4.521,-4.517,-4.5282,-4.5233,-4.522,-4.5127,-4.5052,-4.4996,-4.4844,-4.4887,-4.4821,-4.487,-4.4667,-4.486,-4.4831,-4.4861,-4.4864,-4.4852,-4.4624,-4.4617,-4.4612,-4.4607,0,-4.5698,-4.5782,-4.5617,-4.5663,-4.5671,-4.5541,-4.5579,-4.5486,-4.5537,-4.5414,-4.5392,-4.5467,-4.5377,-4.5455,-4.5366,-4.5408,-4.5188,-4.5241,-4.5191,-4.5203,-4.5025,-4.5039,-4.4444,-4.437,-4.494,-4.4935,-4.493,0,-4.6154,-4.5996,-4.613,-4.6029,-4.5857,-4.5974,-4.5799,-4.5825,-4.5827,-4.5732,-4.5872,-4.5779,-4.5893,-4.581,-4.5871,-4.5707,-4.5691,-4.5711,-4.5727,-4.5694,-4.5691,-4.5661,-4.5684,-4.5776,-4.5779,-4.5782,-4.5784,0,-4.6573,-4.6459,-4.6299,-4.6285,-4.6315,-4.6235,-4.6243,-4.6246,-4.6203,-4.6161,-4.6134,-4.6074,-4.6039,-4.5989,-4.6069,-4.6196,-4.587,-4.6062,-4.5889,-4.5887,-4.5806,-4.5809,-4.527,-4.5788,-4.5789,-4.579,-4.5791,0,-4.6951,-4.6912,-4.6666,-4.6696,-4.666,-4.6552,-4.6504,-4.6431,-4.6423,-4.6457,-4.6423,-4.6522,-4.6388,-4.6572,-4.6386,-4.653,-4.6487,-4.6495,-4.6485,-4.647,-4.6672,-4.6351,-4.5836,-4.5782,-4.6467,-4.6473,-4.6478,0,-4.7406,-4.718,-4.728,-4.7042,-4.6948,-4.7114,-4.6996,-4.6986,-4.7021,-4.6944,-4.6983,-4.689,-4.7045,-4.7026,-4.6925,-4.6957,-4.6771,-4.6986,-4.6861,-4.6855,-4.6855,-4.6384,-4.6284,-4.5942,-4.6551,-4.6543,-4.6538,0,-4.7767,-4.7809,-4.7758,-4.7748,-4.7756,-4.7677,-4.7542,-4.748,-4.7423,-4.7395,-4.7281,-4.7155,-4.7266,-4.7232,-4.7305,-4.7194,-4.69,-4.7326,-4.7327,-4.7242,-4.6595,-4.6503,-4.6445,-4.6973,-4.6964,-4.6957,-4.6596,0,-4.8313,-4.8211,-4.8083,-4.8053,-4.8006,-4.7861,-4.7948,-4.7887,-4.7965,-4.8005,-4.7839,-4.7846,-4.7774,-4.7731,-4.7803,-4.7528,-4.7584,-4.7701,-4.788,-4.7572,-4.7454,-4.7407,-4.8049,-4.8055,-4.806,-4.8064,0,0,-4.8723,-4.858,-4.8692,-4.8566,-4.8532,-4.8704,-4.8542,-4.8528,-4.8492,-4.8463,-4.8566,-4.8386,-4.8384,-4.8172,-4.8083,-4.8055,-4.8011,-4.8114,-4.7719,-4.768,-4.7645,-4.7517,-4.7467,-4.8072,-4.8074,-4.8076,-4.8077,0,-4.894,-4.8947,-4.8788,-4.8781,-4.8774,-4.8826,-4.8788,-4.8808,-4.8825,-4.8665,-4.8801,-4.8711,-4.8562,-4.8543,-4.8513,-4.8145,-4.8248,-4.8118,-4.7892,-4.7765,-4.772,-4.768,-4.7546,-4.7497,-4.8089,-4.8088,-4.8088,0,-4.9308,-4.9328,-4.9261,-4.9196,-4.9191,-4.9088,-4.9302,-4.9184,-4.9108,-4.9292,-4.9128,-4.9141,-4.912,-4.891,-4.8818,-4.8907,-4.8459,-4.8615,-4.8586,-4.8575,-4.8456,-4.8402,-4.8354,-4.899,-4.8993,-4.8995,0,0,-4.9482,-4.939,-4.9441,-4.9248,-4.9237,-4.9311,-4.9264,-4.9337,-4.932,-4.9311,-4.9329,-4.9304,-4.922,-4.916,-4.9084,-4.8842,-4.8843,-4.8723,-4.868,-4.8645,-4.8615,-4.8486,-4.8433,-4.9006,-4.9006,-4.9007,0,0,-4.9563,-4.9619,-4.9702,-4.949,-4.9472,-4.9506,-4.9382,-4.9482,-4.9424,-4.9449,-4.9559,-4.9556,-4.9361,-4.9366,-4.95,-4.9147,-4.9324,-4.9293,-4.915,-4.9098,-4.9056,-4.9056,-4.9711,0,0,0,0,0,-4.9829,-4.9614,-4.9689,-4.9666,-4.958,-4.9466,-4.9455,-4.9545,-4.967,-4.957,-4.9601,-4.9717,-4.9462,-4.9584,-4.9556,-4.9402,-4.9144,-4.9119,-4.9096,-4.8855,-4.88,-4.8753,0,0,0,0,0,0,-4.9821,-4.9793,-4.9695,-4.9718,-4.97,-4.9474,-4.9705,-4.9724,-4.9683,-4.9708,-4.9707,-4.9716,-4.9787,-4.9604,-4.9577,-4.9429,-4.972,-4.9134,-4.9113,-4.9095,-4.8836,-4.8791,-4.8752,0,0,0,0,0,-4.9815,-4.9793,-4.9632,-4.9722,-4.9706,-4.9775,-4.9714,-4.9731,-4.97,-4.9747,-4.9761,-4.9772,-4.978,-4.9764,-4.9588,-4.9439,-4.9739,-4.9729,-4.9121,-4.9104,-4.909,-4.8814,0,0,0,0,0,0,-4.981,-4.9805,-4.9631,-4.9629,-4.981,-4.9789,-4.9789,-4.9737,-4.9744,-4.9755,-4.9818,-4.9837,-4.9773,-4.9762,-4.9748,-4.9438,-4.9755,-4.9744,-4.9738,-4.9108,-4.9095,-4.9084,0,0,0,0,0,0,-4.9818,-4.9802,-4.963,-4.9736,-4.9748,-4.9801,-4.9802,-4.9664,-4.9742,-4.9815,-4.9832,-4.9826,-4.979,-4.9759,-4.9749,-4.953,-4.9766,-4.9756,-4.975,-4.9745,-4.9098,-4.9088,0,0,0,0,0,0,-4.9813,-4.98,-4.9738,-4.9746,-4.9757,-4.9743,-4.9681,-4.9585,-4.984,-4.9812,-4.9865,-4.9876,-4.9783,-4.9776,-4.9749,-4.9533,-4.9531,-4.9766,-4.9759,-4.9754,-4.9751,0,0,0,0,0,0,0,-4.9809,-4.9877,-4.9641,-4.9754,-4.9764,-4.9613,-4.9612,-4.9612,-4.9843,-4.9852,-4.9862,-4.9871,-4.9822,-4.9812,-4.9801,-4.9535,0,0,-4.9767,-4.9762,0,0,0,0,0,0,0,0,-4.9885,-4.9879,-4.9641,-4.9641,-4.9641,-4.9613,-4.9612,-4.9612,-4.9844,-4.9852,-4.986,-4.9868,-4.982,-4.9811,-4.9802,0,0,0,0,0,0,0,0,0,0,0,0,0,0,0,-4.9641,-4.9641,0,-4.9613,-4.9612,-4.9612,-4.9845,-4.9852,-4.9859,-4.9865,-4.9817,-4.981,-4.9803,0,0,0,0,0,0,0,0,0,0,0,0,0,0,0,0,0,0,0,0,0,0,0,0,0,0,0,0,0,0,0,0,0,0,0,0,0,0,0,0,0,0,0,0,0,0,0,0,0,0,0,0,0,0,0,0,0,0,0,0,0,0,0,0,0,0,0,0,0]}]]]